Date String (YYYY-MM-DD hh:mm:ss) UTC,Instrument flags,Ambient pressure (hPa),Sample flow (lpm),Bypass flow (lpm),Sample temperature (°C),Ambient temperature (°C),ASC tube jacket temperature (°C),LED temperature (°C),Box temperature (°C),Sample RH (%),Span deviation,Mass concentration (μg/m³),Mass concentration (μg/m³),Mass concentration (μg/m³)
DateTimeUTC,F1_M11,P_M11,Q1_M11,Q2_M11,T1_M11,T2_M11,T3_M11,T4_M11,T5_M11,U1_M11,ZSPAN_M11,X0_M11,X2_M11,X1_M11
2022-03-20 23:00:00,,0815.3,5.01,0.00,29.2,28.4,00.0,38.0,31.0,05.9,0000.0,0010.84,0004.12,0002.44
2022-03-20 23:01:00,,0815.3,4.99,0.00,29.2,28.4,00.0,38.0,31.0,06.0,0000.0,0010.98,0004.15,0002.45
2022-03-20 23:02:00,,0815.3,4.99,0.00,29.2,28.4,00.0,38.1,31.0,05.8,0000.0,0011.09,0004.17,0002.46
2022-03-20 23:03:00,,0815.3,5.01,0.00,29.2,28.4,00.0,38.1,31.0,05.9,0000.0,0011.08,0004.16,0002.46
2022-03-20 23:04:00,,0815.3,4.98,0.00,29.3,28.5,00.0,38.1,31.1,06.2,0000.0,0011.20,0004.16,0002.45
2022-03-20 23:05:00,,0815.3,5.01,0.00,29.3,28.5,00.0,38.1,31.0,05.8,0000.0,0011.19,0004.18,0002.46
2022-03-20 23:06:00,,0815.3,5.00,0.00,29.3,28.5,00.0,38.1,31.0,05.9,0000.0,0010.42,0004.22,0002.47
2022-03-20 23:07:00,,0815.3,5.00,0.00,29.3,28.5,00.0,38.1,31.1,05.8,0000.0,0010.55,0004.28,0002.49
2022-03-20 23:08:00,,0815.3,5.00,0.00,29.3,28.5,00.0,38.2,31.1,05.8,0000.0,0010.59,0004.28,0002.49
2022-03-20 23:09:00,,0815.2,5.00,0.00,29.3,28.5,00.0,38.2,31.1,05.7,0000.0,0010.52,0004.27,0002.50
2022-03-20 23:10:00,,0815.2,5.01,0.00,29.3,28.5,00.0,38.2,31.0,05.8,0000.0,0010.06,0004.26,0002.49
2022-03-20 23:11:00,,0815.2,4.99,0.00,29.3,28.5,00.0,38.2,31.1,05.9,0000.0,0010.02,0004.28,0002.50
2022-03-20 23:12:00,,0815.2,5.02,0.00,29.3,28.5,00.0,38.2,31.1,05.8,0000.0,0009.94,0004.27,0002.50
2022-03-20 23:13:00,,0815.2,4.99,0.00,29.3,28.5,00.0,38.2,31.1,05.8,0000.0,0009.83,0004.25,0002.50
2022-03-20 23:14:00,,0815.3,5.00,0.00,29.4,28.5,00.0,38.2,31.1,05.8,0000.0,0010.16,0004.26,0002.50
2022-03-20 23:15:00,,0815.2,4.99,0.00,29.4,28.5,00.0,38.2,31.1,05.8,0000.0,0010.62,0004.26,0002.50
2022-03-20 23:16:00,,0815.2,5.00,0.00,29.4,28.6,00.0,38.2,31.2,05.9,0000.0,0010.68,0004.28,0002.52
2022-03-20 23:17:00,,0815.2,5.00,0.00,29.4,28.6,00.0,38.3,31.2,05.8,0000.0,0010.63,0004.27,0002.51
2022-03-20 23:18:00,,0815.2,5.00,0.00,29.4,28.6,00.0,38.3,31.2,05.8,0000.0,0010.46,0004.18,0002.51
2022-03-20 23:19:00,,0815.2,5.01,0.00,29.4,28.6,00.0,38.3,31.2,05.9,0000.0,0010.81,0004.19,0002.51
2022-03-20 23:20:00,,0815.2,4.99,0.00,29.4,28.6,00.0,38.3,31.2,06.0,0000.0,0011.04,0004.19,0002.50
2022-03-20 23:21:00,,0815.1,5.02,0.00,29.5,28.6,00.0,38.3,31.2,06.2,0000.0,0010.92,0004.17,0002.52
2022-03-20 23:22:00,,0815.1,4.98,0.00,29.5,28.6,00.0,38.3,31.2,06.1,0000.0,0010.81,0004.13,0002.51
2022-03-20 23:23:00,,0815.1,5.00,0.00,29.5,28.7,00.0,38.3,31.2,06.2,0000.0,0010.83,0004.16,0002.52
2022-03-20 23:24:00,,0815.2,5.00,0.00,29.5,28.7,00.0,38.3,31.3,06.1,0000.0,0010.91,0004.20,0002.51
2022-03-20 23:25:00,,0815.2,4.98,0.00,29.5,28.7,00.0,38.4,31.3,05.9,0000.0,0010.67,0004.23,0002.50
2022-03-20 23:26:00,,0815.2,5.02,0.00,29.5,28.7,00.0,38.4,31.3,05.8,0000.0,0009.86,0004.22,0002.50
2022-03-20 23:27:00,,0815.2,4.99,0.00,29.5,28.7,00.0,38.4,31.2,06.3,0000.0,0009.79,0004.22,0002.48
2022-03-20 23:28:00,,0815.2,5.02,0.00,29.5,28.7,00.0,38.4,31.3,06.5,0000.0,0009.92,0004.25,0002.48
2022-03-20 23:29:00,,0815.2,5.00,0.00,29.5,28.7,00.0,38.4,31.3,06.2,0000.0,0010.22,0004.21,0002.50
2022-03-20 23:30:00,,0815.2,4.99,0.00,29.5,28.7,00.0,38.4,31.3,06.3,0000.0,0010.25,0004.17,0002.52
2022-03-20 23:31:00,,0815.2,5.00,0.00,29.5,28.7,00.0,38.4,31.3,05.8,0000.0,0010.04,0004.17,0002.53
2022-03-20 23:32:00,,0815.2,5.01,0.00,29.5,28.7,00.0,38.4,31.3,05.7,0000.0,0010.38,0004.21,0002.52
2022-03-20 23:33:00,,0815.3,4.98,0.00,29.5,28.7,00.0,38.4,31.3,05.7,0000.0,0010.52,0004.25,0002.53
2022-03-20 23:34:00,,0815.2,5.02,0.00,29.6,28.7,00.0,38.4,31.3,05.7,0000.0,0010.47,0004.21,0002.55
2022-03-20 23:35:00,,0815.3,4.98,0.00,29.6,28.7,00.0,38.4,31.3,06.0,0000.0,0010.32,0004.13,0002.55
2022-03-20 23:36:00,,0815.2,5.02,0.00,29.6,28.7,00.0,38.4,31.3,05.8,0000.0,0010.13,0004.07,0002.56
2022-03-20 23:37:00,,0815.2,4.99,0.00,29.6,28.7,00.0,38.5,31.3,05.8,0000.0,0010.04,0004.05,0002.57
2022-03-20 23:38:00,,0815.2,5.00,0.00,29.6,28.7,00.0,38.5,31.3,05.9,0000.0,0010.14,0004.10,0002.59
2022-03-20 23:39:00,,0815.3,5.01,0.00,29.6,28.7,00.0,38.5,31.3,05.9,0000.0,0010.19,0004.07,0002.62
2022-03-20 23:40:00,,0815.3,4.99,0.00,29.6,28.7,00.0,38.5,31.3,05.8,0000.0,0010.16,0004.15,0002.63
2022-03-20 23:41:00,,0815.3,5.01,0.00,29.6,28.7,00.0,38.5,31.3,06.0,0000.0,0009.63,0004.21,0002.63
2022-03-20 23:42:00,,0815.3,4.99,0.00,29.6,28.7,00.0,38.5,31.4,06.1,0000.0,0009.84,0004.25,0002.63
2022-03-20 23:43:00,,0815.3,4.99,0.00,29.6,28.7,00.0,38.5,31.4,06.3,0000.0,0009.64,0004.22,0002.63
2022-03-20 23:44:00,,0815.3,5.00,0.00,29.6,28.7,00.0,38.5,31.4,06.2,0000.0,0009.55,0004.24,0002.64
2022-03-20 23:45:00,,0815.4,5.00,0.00,29.6,28.7,00.0,38.5,31.4,06.2,0000.0,0009.66,0004.25,0002.64
2022-03-20 23:46:00,,0815.3,5.01,0.00,29.6,28.8,00.0,38.5,31.4,05.8,0000.0,0010.45,0004.27,0002.65
2022-03-20 23:47:00,,0815.3,4.98,0.00,29.6,28.8,00.0,38.5,31.4,05.8,0000.0,0010.62,0004.29,0002.65
2022-03-20 23:48:00,,0815.3,5.02,0.00,29.6,28.8,00.0,38.5,31.4,06.0,0000.0,0010.89,0004.40,0002.68
2022-03-20 23:49:00,,0815.3,4.99,0.00,29.6,28.8,00.0,38.5,31.4,05.8,0000.0,0011.02,0004.38,0002.67
2022-03-20 23:50:00,,0815.4,5.01,0.00,29.7,28.8,00.0,38.6,31.4,05.9,0000.0,0011.31,0004.45,0002.68
2022-03-20 23:51:00,,0815.7,5.00,0.00,29.7,28.8,00.0,38.6,31.4,06.2,0000.0,0011.15,0004.41,0002.68
2022-03-20 23:52:00,,0815.9,5.00,0.00,29.7,28.8,00.0,38.6,31.4,06.3,0000.0,0011.19,0004.37,0002.68
2022-03-20 23:53:00,,0816.0,5.01,0.00,29.7,28.8,00.0,38.6,31.5,06.3,0000.0,0011.40,0004.40,0002.67
2022-03-20 23:54:00,,0816.0,5.00,0.00,29.7,28.9,00.0,38.6,31.5,06.3,0000.0,0011.54,0004.46,0002.68
2022-03-20 23:55:00,,0815.8,5.00,0.00,29.7,28.9,00.0,38.6,31.5,06.1,0000.0,0011.54,0004.45,0002.68
2022-03-20 23:56:00,,0815.9,4.99,0.00,29.7,28.9,00.0,38.6,31.5,06.0,0000.0,0012.02,0004.45,0002.67
2022-03-20 23:57:00,,0815.9,5.01,0.00,29.7,28.9,00.0,38.6,31.5,05.6,0000.0,0011.46,0004.43,0002.67
2022-03-20 23:58:00,,0816.0,4.99,0.00,29.7,28.9,00.0,38.6,31.4,05.5,0000.0,0011.40,0004.45,0002.66
2022-03-20 23:59:00,,0815.8,5.01,0.00,29.7,28.9,00.0,38.6,31.5,05.6,0000.0,0011.25,0004.40,0002.64
